[[{"header":{"parameterUnit":"m.s-1","parameterCategory":2,"la1":30.2992,"la2":30.254,"lo1":-89.0895,"lo2":-89.0443,"dy":0.0025,"dx":0.0025,"nx":19,"ny":19,"refTime":"2026-04-07T03:00:00:Z","depth":"0","parameterNumber":2,"parameterNumberName":"U-component_of_CURRENTS"},"data":[0,0,0,0.1151,0.1152,0.1176,0.1176,0.1209,0.121,0,0,0,0,0,0,0,0,0,0,0,0.114,0.114,0.1151,0.1152,0.1176,0.1176,0.1209,0.121,0,0,0,0,0,0,0,0,0,0,0,0.114,0.114,0.1141,0.1152,0.1176,0.1176,0.1209,0.119,0,0,0,0,0,0,0,0,0,0,0.1166,0.1154,0.114,0.1141,0.1152,0.1176,0.1176,0.1189,0.1191,0.1201,0,0.1205,0,0.1211,0.1212,0.1212,0,0,0,0.1149,0.1152,0.1162,0.1141,0.1153,0.1176,0.1164,0.119,0.1192,0.1204,0.1206,0.1207,0.1212,0.1213,0.1213,0.1265,0.1265,0,0,0.1147,0.1141,0.116,0.1164,0.116,0.1163,0.1165,0.1191,0.1193,0.1206,0.1208,0.1213,0.1213,0.1213,0.1265,0.1265,0,0,0,0.1146,0.1141,0.115,0.1162,0.1168,0.1164,0.1166,0.1191,0.1195,0.1208,0.1213,0.1213,0.1214,0.1264,0.1265,0.1283,0,0,0,0.1145,0.114,0.1149,0.1145,0.1168,0.118,0.1165,0.1193,0.1197,0.1213,0.1213,0.1214,0.1264,0.1264,0.1282,0.1285,0,0,0,0.1139,0.1139,0.1143,0.1145,0.1158,0.1179,0.1185,0.1194,0.12,0.1213,0.1214,0.1264,0.1264,0.1281,0.1283,0.1325,0,0,0,0.113,0.1134,0.1143,0.115,0.1157,0.118,0.1184,0.12,0.121,0.1213,0.1264,0.1265,0.128,0.1282,0.1324,0.1322,0.1329,0,0,0.1129,0.1133,0.1138,0.1147,0.1165,0.1176,0.1203,0.1217,0.1225,0.1254,0.1255,0.1282,0.1283,0.1325,0.136,0.1366,0,0,0,0.1134,0.1136,0.1144,0.1157,0.1176,0.1203,0.1219,0.1237,0.1268,0.1236,0.1291,0.129,0.1316,0.1313,0.1317,0.1299,0.1268,0.1268,0.1268,0.1113,0.1129,0.1139,0.1163,0.1182,0.1222,0.125,0.1279,0.1282,0.1304,0.1312,0.1363,0.1359,0.1363,0.1344,0.1322,0.1322,0.1322,0.1322,0.1103,0.1101,0.1134,0.1148,0.1185,0.1213,0.128,0.13,0.1358,0.1343,0.1368,0.1339,0.1369,0.1347,0.1323,0.1323,0.1323,0.1323,0.1323,0.1074,0.1075,0.1093,0.1118,0.1155,0.1207,0.1264,0.1317,0.1371,0.1397,0.1412,0.1412,0.1389,0.142,0.142,0.142,0.142,0.142,0.142,0.1026,0.1047,0.1051,0.1087,0.1104,0.1155,0.1258,0.1315,0.1402,0.1434,0.1434,0.1405,0.1393,0.1385,0.1424,0.1423,0.1423,0.1422,0.1422,0.0975,0.099,0.0996,0.101,0.1054,0.1079,0.1195,0.1323,0.1405,0.1447,0.1458,0.1462,0.146,0.1455,0.1449,0.1502,0.1502,0.1502,0.1502,0.0933,0.0944,0.0945,0.0957,0.0984,0.1041,0.1107,0.1243,0.1398,0.1454,0.1481,0.1448,0.1445,0.144,0.1436,0.1428,0.1475,0.1475,0.1475,0.0899,0.0911,0.0896,0.0917,0.0944,0.099,0.1024,0.112,0.135,0.1472,0.1459,0.146,0.1407,0.1405,0.1391,0.1387,0.1372,0,0]},{"header":{"parameterUnit":"m.s-1","parameterCategory":2,"la1":30.2992,"la2":30.254,"lo1":-89.0895,"lo2":-89.0443,"dy":0.0025,"dx":0.0025,"nx":19,"ny":19,"refTime":"2026-04-07T03:00:00:Z","depth":"0","parameterNumber":3,"parameterNumberName":"V-component_of_CURRENTS"},"data":[0,0,0,-0.0161,-0.0162,-0.019,-0.019,-0.0234,-0.0234,0,0,0,0,0,0,0,0,0,0,0,-0.015,-0.015,-0.0161,-0.0162,-0.019,-0.019,-0.0234,-0.0234,0,0,0,0,0,0,0,0,0,0,0,-0.015,-0.015,-0.0151,-0.0162,-0.019,-0.019,-0.0234,-0.0212,0,0,0,0,0,0,0,0,0,0,-0.0184,-0.017,-0.015,-0.0151,-0.0162,-0.019,-0.019,-0.021,-0.0213,-0.0222,0,-0.0224,0,-0.023,-0.0237,-0.0237,0,0,0,-0.0165,-0.0168,-0.0176,-0.0151,-0.0162,-0.019,-0.0178,-0.0212,-0.0215,-0.0226,-0.0224,-0.0226,-0.023,-0.0237,-0.0238,-0.0249,-0.0249,0,0,-0.0164,-0.0157,-0.0174,-0.0178,-0.0166,-0.0177,-0.0179,-0.0213,-0.0215,-0.0225,-0.0227,-0.0231,-0.0238,-0.0238,-0.0249,-0.0249,0,0,0,-0.0157,-0.0155,-0.0163,-0.0176,-0.018,-0.0178,-0.018,-0.0213,-0.0216,-0.0228,-0.0232,-0.0238,-0.0238,-0.025,-0.0249,-0.0195,0,0,0,-0.0156,-0.0151,-0.0162,-0.0158,-0.0179,-0.0196,-0.0179,-0.0213,-0.0217,-0.0231,-0.0238,-0.0239,-0.025,-0.0249,-0.0197,-0.0159,0,0,0,-0.015,-0.0151,-0.0153,-0.0158,-0.0168,-0.0195,-0.02,-0.0214,-0.022,-0.0237,-0.0239,-0.025,-0.025,-0.0199,-0.0163,-0.0113,0,0,0,-0.0143,-0.0141,-0.0153,-0.0149,-0.0168,-0.0169,-0.02,-0.0208,-0.022,-0.0238,-0.025,-0.0249,-0.02,-0.0165,-0.0116,-0.0028,-0.0009,0,0,-0.0136,-0.014,-0.0137,-0.0148,-0.0138,-0.0166,-0.0154,-0.0186,-0.0217,-0.024,-0.0241,-0.0197,-0.0163,-0.0114,-0.0002,0.0016,0,0,0,-0.0131,-0.0127,-0.0127,-0.0124,-0.0131,-0.0121,-0.0155,-0.0169,-0.0189,-0.0222,-0.0203,-0.0183,-0.0154,-0.0107,-0.0092,-0.0149,-0.0247,-0.0247,-0.0247,-0.0106,-0.0107,-0.0093,-0.0092,-0.0087,-0.0094,-0.0089,-0.0114,-0.0159,-0.016,-0.0145,-0.0076,-0.0026,-0.0014,-0.0075,-0.0159,-0.0158,-0.0158,-0.0158,-0.0079,-0.0064,-0.0058,-0.0046,-0.0034,-0.0025,-0.0029,-0.005,-0.0046,-0.0102,-0.0076,-0.0059,0.0006,-0.0065,-0.0155,-0.0155,-0.0156,-0.0156,-0.0156,-0.0053,-0.0045,-0.004,-0.001,0.002,0.0024,0.0083,0.0053,0.0015,0.0038,0.0085,0.0085,0.0029,0.0047,0.0047,0.0047,0.0048,0.0048,0.0048,-0.0027,-0.002,0.0004,0.0029,0.0056,0.0105,0.0144,0.0177,0.0196,0.0165,0.0166,0.0053,-0.0013,-0.0014,0.0054,0.0053,0.0052,0.0052,0.0051,0.0007,0.0007,0.0045,0.0072,0.0142,0.0232,0.0268,0.0374,0.039,0.042,0.025,0.0235,0.0233,0.0221,0.0225,0.0351,0.0351,0.0351,0.0351,0.0033,0.0034,0.0089,0.0139,0.0219,0.0293,0.0471,0.0556,0.0492,0.0428,0.0338,0.0292,0.0282,0.0277,0.0264,0.0267,0.04,0.04,0.04,0.0062,0.0073,0.0118,0.0159,0.0248,0.0378,0.056,0.0697,0.0562,0.039,0.0241,0.0239,0.0153,0.0142,0.0115,0.0101,0.0098,0,0]}],[{"header":{"parameterUnit":"m.s-1","parameterCategory":2,"la1":30.2992,"la2":30.254,"lo1":-89.0895,"lo2":-89.0443,"dy":0.0025,"dx":0.0025,"nx":19,"ny":19,"refTime":"2026-04-07T03:00:00:Z","depth":"2","parameterNumber":2,"parameterNumberName":"U-component_of_CURRENTS"},"data":[0,0,0,0.123,0.1231,0.1254,0.1254,0.129,0.129,0,0,0,0,0,0,0,0,0,0,0,0.1219,0.1219,0.123,0.1231,0.1254,0.1254,0.129,0.129,0,0,0,0,0,0,0,0,0,0,0,0.1219,0.1219,0.122,0.1231,0.1254,0.1254,0.129,0.127,0,0,0,0,0,0,0,0,0,0,0.1247,0.1234,0.1219,0.122,0.1231,0.1254,0.1254,0.1269,0.1271,0.1282,0,0.1286,0,0.1292,0.1293,0.1293,0,0,0,0.1228,0.1232,0.1242,0.122,0.1231,0.1254,0.1243,0.127,0.1273,0.1286,0.1287,0.1288,0.1293,0.1293,0.1294,0.1348,0.1349,0,0,0.1227,0.122,0.124,0.1244,0.1238,0.1242,0.1243,0.1272,0.1273,0.1287,0.1289,0.1294,0.1294,0.1294,0.1348,0.1348,0,0,0,0.1225,0.1219,0.1228,0.1242,0.1248,0.1243,0.1244,0.1271,0.1275,0.129,0.1294,0.1294,0.1294,0.1348,0.1348,0.1364,0,0,0,0.1224,0.1219,0.1228,0.1224,0.1247,0.1259,0.1243,0.1273,0.1277,0.1294,0.1294,0.1295,0.1347,0.1348,0.1363,0.1365,0,0,0,0.1218,0.1218,0.1222,0.1224,0.1236,0.1258,0.1264,0.1274,0.128,0.1293,0.1295,0.1347,0.1348,0.1362,0.1363,0.1406,0,0,0,0.121,0.1212,0.1222,0.1228,0.1235,0.1259,0.1263,0.1279,0.129,0.1294,0.1347,0.1348,0.1361,0.1362,0.1404,0.1406,0.1412,0,0,0.1208,0.1212,0.1216,0.1226,0.1243,0.1255,0.1283,0.1297,0.1306,0.1337,0.1339,0.1363,0.1363,0.1405,0.1444,0.145,0,0,0,0.1213,0.1214,0.1223,0.1235,0.1255,0.1282,0.1298,0.1317,0.1348,0.1317,0.1372,0.1372,0.1398,0.1396,0.1401,0.1351,0.1351,0.1351,0.1351,0.119,0.1207,0.1216,0.1241,0.1261,0.1301,0.1329,0.1359,0.1363,0.1384,0.1392,0.1442,0.144,0.1444,0.1402,0.1402,0.1403,0.1403,0.1403,0.1179,0.1176,0.121,0.1224,0.1262,0.129,0.1359,0.1378,0.1437,0.1422,0.1447,0.1421,0.145,0.1404,0.1404,0.1404,0.1403,0.1403,0.1403,0.1148,0.1149,0.1167,0.1192,0.1229,0.1282,0.134,0.1393,0.1447,0.1473,0.1492,0.1491,0.1456,0.1495,0.1496,0.1496,0.1496,0.1496,0.1496,0.1098,0.112,0.1123,0.1159,0.1176,0.1227,0.1331,0.1388,0.1477,0.1511,0.1511,0.1474,0.1471,0.1462,0.1499,0.1499,0.1498,0.1498,0.1498,0.1046,0.1061,0.1067,0.108,0.1126,0.1163,0.127,0.1399,0.148,0.1523,0.1543,0.154,0.154,0.1536,0.1529,0.1582,0.1582,0.1582,0.1582,0.1004,0.1014,0.1015,0.1027,0.1056,0.113,0.1221,0.1367,0.1498,0.1554,0.1554,0.1522,0.1519,0.1515,0.1512,0.1503,0.1549,0.1549,0.1549,0.097,0.0981,0.0966,0.0987,0.1017,0.1091,0.1181,0.131,0.145,0.1546,0.1527,0.1584,0.1537,0.1533,0.1526,0.152,0.1506,0,0]},{"header":{"parameterUnit":"m.s-1","parameterCategory":2,"la1":30.2992,"la2":30.254,"lo1":-89.0895,"lo2":-89.0443,"dy":0.0025,"dx":0.0025,"nx":19,"ny":19,"refTime":"2026-04-07T03:00:00:Z","depth":"2","parameterNumber":3,"parameterNumberName":"V-component_of_CURRENTS"},"data":[0,0,0,-0.0177,-0.0178,-0.0205,-0.0205,-0.0248,-0.0248,0,0,0,0,0,0,0,0,0,0,0,-0.0166,-0.0167,-0.0177,-0.0178,-0.0205,-0.0205,-0.0248,-0.0248,0,0,0,0,0,0,0,0,0,0,0,-0.0166,-0.0167,-0.0167,-0.0178,-0.0205,-0.0205,-0.0248,-0.0226,0,0,0,0,0,0,0,0,0,0,-0.0199,-0.0186,-0.0167,-0.0167,-0.0178,-0.0205,-0.0205,-0.0225,-0.0227,-0.0237,0,-0.0238,0,-0.0243,-0.0251,-0.0251,0,0,0,-0.0181,-0.0184,-0.0192,-0.0167,-0.0178,-0.0205,-0.0194,-0.0226,-0.0229,-0.024,-0.0238,-0.024,-0.0244,-0.0251,-0.0251,-0.0261,-0.0261,0,0,-0.018,-0.0173,-0.0189,-0.0193,-0.0182,-0.0193,-0.0194,-0.0228,-0.0229,-0.0239,-0.0241,-0.0245,-0.0251,-0.0252,-0.0261,-0.0261,0,0,0,-0.0173,-0.0171,-0.0178,-0.0191,-0.0195,-0.0193,-0.0195,-0.0228,-0.023,-0.0242,-0.0245,-0.0252,-0.0252,-0.0261,-0.0261,-0.0207,0,0,0,-0.0172,-0.0167,-0.0178,-0.0174,-0.0195,-0.0211,-0.0194,-0.0228,-0.0232,-0.0245,-0.0252,-0.0253,-0.0261,-0.0261,-0.0209,-0.0172,0,0,0,-0.0166,-0.0167,-0.0169,-0.0173,-0.0184,-0.021,-0.0214,-0.0229,-0.0234,-0.0251,-0.0253,-0.0262,-0.0261,-0.0211,-0.0175,-0.0127,0,0,0,-0.016,-0.0157,-0.0169,-0.0164,-0.0184,-0.0183,-0.0214,-0.0222,-0.0233,-0.0252,-0.0261,-0.0261,-0.0211,-0.0178,-0.013,-0.0056,-0.0038,0,0,-0.0151,-0.0155,-0.0152,-0.0163,-0.0152,-0.018,-0.0167,-0.0198,-0.023,-0.0252,-0.0253,-0.0208,-0.0176,-0.0128,-0.0028,-0.0011,0,0,0,-0.0146,-0.0142,-0.0141,-0.0138,-0.0143,-0.0133,-0.0167,-0.0181,-0.0201,-0.0234,-0.0214,-0.0195,-0.0166,-0.0127,-0.0114,-0.0259,-0.0259,-0.0259,-0.0259,-0.012,-0.0121,-0.0106,-0.0104,-0.0099,-0.0105,-0.0099,-0.0124,-0.0169,-0.017,-0.0155,-0.0087,-0.0046,-0.0034,-0.0168,-0.0168,-0.0168,-0.0168,-0.0168,-0.0092,-0.0078,-0.0072,-0.0059,-0.0046,-0.0036,-0.0039,-0.006,-0.0056,-0.0111,-0.0087,-0.0078,-0.0016,-0.0163,-0.0164,-0.0165,-0.0165,-0.0165,-0.0166,-0.0067,-0.0059,-0.0054,-0.0024,0.0008,0.0012,0.007,0.0041,0.0004,0.0026,0.0063,0.0063,-0.0038,0.0034,0.0034,0.0035,0.0035,0.0035,0.0036,-0.0041,-0.0034,-0.0011,0.0015,0.0042,0.0091,0.0129,0.0161,0.0174,0.0141,0.0142,-0.0018,-0.0025,-0.0027,0.0041,0.004,0.004,0.0039,0.0039,-0.0009,-0.0008,0.003,0.0056,0.0125,0.0203,0.0247,0.0345,0.036,0.0386,0.021,0.0204,0.02,0.0188,0.0192,0.0312,0.0312,0.0312,0.0312,0.0017,0.0018,0.0072,0.0121,0.0199,0.0258,0.0397,0.0421,0.0396,0.0331,0.0329,0.0285,0.0275,0.027,0.0257,0.0259,0.0397,0.0397,0.0397,0.0045,0.0055,0.01,0.014,0.0227,0.0329,0.0435,0.0422,0.0362,0.0392,0.0264,0.0333,0.0263,0.0249,0.0232,0.0215,0.0215,0,0]}],[{"header":{"parameterUnit":"m.s-1","parameterCategory":2,"la1":30.2992,"la2":30.254,"lo1":-89.0895,"lo2":-89.0443,"dy":0.0025,"dx":0.0025,"nx":19,"ny":19,"refTime":"2026-04-07T03:00:00:Z","depth":"4","parameterNumber":2,"parameterNumberName":"U-component_of_CURRENTS"},"data":[0,0,0,0.1099,0.1101,0.1187,0.1187,0.1263,0.1263,0,0,0,0,0,0,0,0,0,0,0,0.1076,0.1077,0.1099,0.1101,0.1186,0.1187,0.1262,0.1263,0,0,0,0,0,0,0,0,0,0,0,0.1076,0.1077,0.1078,0.1102,0.1186,0.1187,0.1262,0.1207,0,0,0,0,0,0,0,0,0,0,0.1129,0.1114,0.1077,0.1078,0.1102,0.1186,0.1187,0.1205,0.121,0.1214,0,0.1234,0,0.1246,0.1267,0.1267,0,0,0,0.1104,0.111,0.1128,0.1078,0.1103,0.1186,0.1149,0.1208,0.1215,0.1221,0.1235,0.1238,0.1247,0.1268,0.1268,0.1341,0.1341,0,0,0.1099,0.1095,0.1124,0.1132,0.1133,0.1146,0.1151,0.1212,0.1224,0.1235,0.124,0.1248,0.1268,0.1268,0.1341,0.1341,0,0,0,0.1084,0.1092,0.1109,0.1129,0.1145,0.1148,0.1155,0.1222,0.1227,0.124,0.1249,0.1268,0.1269,0.134,0.1341,0.1358,0,0,0,0.1081,0.1082,0.1107,0.1106,0.1144,0.119,0.1163,0.1223,0.123,0.1249,0.1268,0.127,0.134,0.1341,0.1356,0.1358,0,0,0,0.1071,0.1081,0.1092,0.1105,0.114,0.1189,0.1199,0.1225,0.1235,0.1267,0.127,0.134,0.1341,0.1355,0.1356,0.1393,0,0,0,0.106,0.1075,0.1093,0.1116,0.1139,0.1182,0.1198,0.1241,0.127,0.1269,0.134,0.1341,0.1355,0.1355,0.1392,0.1232,0,0,0,0.1066,0.1076,0.1088,0.1105,0.1137,0.117,0.1216,0.1263,0.1283,0.1317,0.1319,0.1357,0.1356,0.1393,0.1283,0,0,0,0,0.108,0.109,0.1103,0.1131,0.1165,0.1209,0.1254,0.1281,0.1336,0.1304,0.1369,0.1368,0.1391,0.1294,0.1345,0.1345,0.1345,0.1345,0.1345,0.1072,0.1091,0.1113,0.1145,0.1179,0.1243,0.1284,0.1332,0.1347,0.138,0.1391,0.1442,0.134,0.1405,0.1405,0.1405,0.1405,0.1405,0.1405,0.1068,0.1073,0.1117,0.1147,0.1199,0.1249,0.1323,0.1355,0.1425,0.1421,0.1442,0.1329,0.1407,0.1407,0.1406,0.1406,0.1406,0.1406,0.1406,0.1043,0.1048,0.1085,0.1134,0.1194,0.1261,0.1317,0.1382,0.144,0.1468,0.1387,0.1462,0.1451,0.1493,0.1493,0.1493,0.1494,0.1494,0.1494,0.0997,0.1031,0.106,0.112,0.1158,0.1221,0.1324,0.1364,0.1437,0.139,0.1485,0.1472,0.1469,0.1457,0.1497,0.1496,0.1496,0.1496,0.1495,0.0951,0.0981,0.1013,0.105,0.1123,0.1151,0.1262,0.1301,0.1344,0.1339,0.1352,0.1358,0.134,0.1341,0.1324,0.1326,0.1324,0.1322,0,0.0916,0.0933,0.0975,0.101,0.1038,0.1105,0.1109,0.1172,0.1238,0.1201,0.1362,0.1375,0.1378,0.1358,0.1356,0.1334,0,0,0,0.0889,0.0909,0.0922,0.0969,0.0991,0.1023,0.1103,0.1092,0.122,0.1206,0.1274,0.1287,0.1411,0.1505,0.1494,0.149,0.1471,0,0]},{"header":{"parameterUnit":"m.s-1","parameterCategory":2,"la1":30.2992,"la2":30.254,"lo1":-89.0895,"lo2":-89.0443,"dy":0.0025,"dx":0.0025,"nx":19,"ny":19,"refTime":"2026-04-07T03:00:00:Z","depth":"4","parameterNumber":3,"parameterNumberName":"V-component_of_CURRENTS"},"data":[0,0,0,-0.0101,-0.0101,-0.012,-0.012,-0.0133,-0.0133,0,0,0,0,0,0,0,0,0,0,0,-0.0095,-0.0095,-0.0101,-0.0101,-0.012,-0.012,-0.0133,-0.0133,0,0,0,0,0,0,0,0,0,0,0,-0.0095,-0.0095,-0.0095,-0.0101,-0.012,-0.012,-0.0133,-0.0122,0,0,0,0,0,0,0,0,0,0,-0.0105,-0.0101,-0.0095,-0.0095,-0.0101,-0.012,-0.012,-0.0122,-0.0123,-0.012,0,-0.0123,0,-0.0127,-0.0133,-0.0133,0,0,0,-0.0104,-0.0101,-0.0104,-0.0095,-0.0101,-0.012,-0.0112,-0.0122,-0.0124,-0.0122,-0.0123,-0.0124,-0.0127,-0.0133,-0.0134,-0.0095,-0.0095,0,0,-0.0103,-0.01,-0.0103,-0.0105,-0.0106,-0.0112,-0.0113,-0.0123,-0.0125,-0.0123,-0.0124,-0.0127,-0.0134,-0.0134,-0.0096,-0.0095,0,0,0,-0.0098,-0.0099,-0.0103,-0.0104,-0.0108,-0.0112,-0.0114,-0.0124,-0.0125,-0.0124,-0.0127,-0.0134,-0.0134,-0.0096,-0.0096,-0.007,0,0,0,-0.0097,-0.0096,-0.0102,-0.0101,-0.0108,-0.0118,-0.0114,-0.0125,-0.0126,-0.0127,-0.0134,-0.0134,-0.0097,-0.0096,-0.0071,-0.0057,0,0,0,-0.0094,-0.0096,-0.0097,-0.0101,-0.0108,-0.0118,-0.012,-0.0125,-0.0127,-0.0133,-0.0134,-0.0097,-0.0096,-0.0073,-0.0059,-0.0042,0,0,0,-0.0091,-0.0085,-0.0097,-0.0087,-0.0108,-0.009,-0.012,-0.0117,-0.0119,-0.0134,-0.0097,-0.0096,-0.0074,-0.0061,-0.0043,-0.0042,0,0,0,-0.0079,-0.0084,-0.0075,-0.0087,-0.0065,-0.0088,-0.006,-0.0084,-0.0101,-0.0094,-0.0094,-0.0071,-0.006,-0.0042,0.0023,0,0,0,0,-0.0068,-0.0063,-0.0057,-0.0051,-0.0044,-0.0033,-0.0051,-0.0055,-0.0059,-0.0097,-0.0056,-0.0049,-0.0039,-0.0042,-0.009,-0.0091,-0.0091,-0.0091,-0.0091,-0.0049,-0.0043,-0.0025,-0.0014,-0.0001,0.0004,0.001,0.0003,-0.002,-0.0015,-0.0017,0.003,0.003,-0.0007,-0.0006,-0.0006,-0.0006,-0.0006,-0.0006,-0.0025,-0.0014,-0.0001,0.0017,0.0033,0.0054,0.0066,0.0051,0.0057,0.003,0.0038,-0.0,-0.0003,-0.0004,-0.0004,-0.0004,-0.0005,-0.0005,-0.0005,-0.0014,-0.0007,0.0001,0.0029,0.0059,0.0077,0.0112,0.0103,0.0084,0.0091,0.008,0.0052,0.0037,0.0089,0.0089,0.0089,0.0089,0.0089,0.0089,-0.0009,0.0002,0.0017,0.0045,0.0066,0.0102,0.0134,0.0145,0.013,0.0119,0.0096,0.0062,0.0059,0.0043,0.0092,0.0091,0.0091,0.0091,0.0091,0.0004,0.0005,0.0029,0.0047,0.0099,0.013,0.0163,0.0186,0.0196,0.0186,0.0134,0.0131,0.0121,0.0117,0.0102,0.017,0.017,0.0171,0,0.0009,0.0013,0.0041,0.0073,0.012,0.0151,0.0192,0.0209,0.0187,0.0176,0.0179,0.0119,0.0116,0.0103,0.0099,0.0082,0,0,0,0.0018,0.0025,0.0044,0.0074,0.0127,0.0174,0.0205,0.0209,0.0186,0.0207,0.0176,0.0175,0.0141,0.0099,0.0077,0.0073,0.0046,0,0]}]]